{"data":{"norad_id":53391,"epoch":"2026-09-19T18:56:09.756384Z","epoch_age_seconds":136710,"freshness":"FRESH","line1":"1 53391U 22097D   26262.78900181  .00001709  00000+0  66792-4 0  9993","line2":"2 53391  53.1590 322.2420 0001175  93.2658 266.8478 15.31710207228110","mean_motion":15.31710207,"eccentricity":0.0001175,"inclination_deg":53.159,"raan_deg":322.242,"arg_perigee_deg":93.2658,"mean_anomaly_deg":266.8478,"bstar":6.6792e-5,"rev_number":22811,"period_min":94.01256147665,"perigee_km":469.9048293869,"apogee_km":471.51430833058,"semimajor_km":6848.8465688587,"source":"CELESTRAK","updated_at":"2026-09-20T09:00:40.223330Z"}}